ARIANE 42P DEB, 44510

Orbit data source: Space-Track

ARIANE 42P DEB, 44510 is space debris in LEO originally from a launch on Mon, 10 Aug 1992 UTC launched from the French Guiana (FRGUI). Debris objects in space refer to the collection of defunct objects orbiting the Earth. Examples of debris include non-operational satellites, rocket bodies, and fragments generated from explosions, collisions, or faulty payload assembly.

Loading next visibility...
Identifier
44510, 1992-052H
Orbit
LEO
Country
Flag of FRFR
Related business
Manufacturer
ArianeGroup
Mission
Spacecraft
Bus & Motor
Unknown
Mass
Unknown
Launch date (UTC)
1992-08-10 (33 years ago)
Launch vehicle
Unknown
Launch site
French Guiana (FRGUI)
Object type
Payload
Rocket body
Debris
Shape & HBR
Unknown
Radar Cross Section
Small (<0.1 m²)

Expand to show TLE details & history
Last TLE update: 20 hours ago

TLE from 20 hours ago
0 ARIANE 42P DEB
1 44510U 92052H   25260.10037260  .00002178  00000-0  95188-2 0  9997
2 44510  66.0567 146.0771 0076765  82.7309 278.2425 12.81495636284595
Epoch: 2025-09-17T02:24Z
TLE epoch observation values (Epoch: 2025-09-17T02:24:32.192Z)
Latitude
0.00002°
Longitude
113.6618°
Altitude
1,329.33 km
Speed
7.197 km/s
True Right ascension
09h 44m 18s
True Declination
0° 00' 00"
Sunlit
Object was in daylight at epoch
Visualization orbit readout
Latitude
Unknown
Longitude
Unknown
Altitude
Unknown
Speed
Unknown
Apparent Right ascension
Unknown
Apparent Declination
Unknown
Sunlit
N/A
Visualization observer readout
Local Sidereal Time
15:38:38
Azimuth
Unknown
Elevation
Unknown
Doppler factor
Unknown
Orbital elements
Apogee altitude
1,393.225 km
Perigee altitude
1,274.821 km
Semi-major axis
7,712.16 km
Eccentricity
0.00768
Inclination
66.0567°
RAAN
146.0771°
Arg. of periapsis
82.7309°
True anomaly
277.37076°
Mean anomaly
278.2425°
Eccentric anomaly
277.80675°
Mean motion
3.20464 °/min
Orbital period
112.34 mins
BSTAR
0.0095188
Loading maneuver chart data...
Computing Atmospheric mass density...
Loading historical data...
Loading historical data...
Loading historical data...
Loading historical data...
Loading historical data...
Loading historical data...
Loading historical data...

Documentation

Showing up to 5 results
|